COSMOS 2491 DEB, 57547

Orbit data source: Space-Track

COSMOS 2491 DEB, 57547 is space debris in LEO originally from a launch on Wed, 25 Dec 2013 UTC launched from the Plesetsk Missile And Space Complex (PKMTR). Debris objects in space refer to the collection of defunct objects orbiting the Earth. Examples of debris include non-operational satellites, rocket bodies, and fragments generated from explosions, collisions, or faulty payload assembly.

Loading next visibility...
Identifier
57547, 2013-076AJ
Orbit
LEO
Country
Flag of CISCIS
Related business
Manufacturer
TsNIIKhM
Mission
Spacecraft
Bus & Motor
Unknown
Mass
Unknown
Launch date (UTC)
2013-12-25 (13 years ago)
Launch vehicle
Unknown
Launch site
Plesetsk Missile And Space Complex (PKMTR)
Object type
Payload
Rocket body
Debris
Shape & HBR
Unknown shape, 0.1 m
Radar Cross Section
Small (<0.1 m²)

Expand to show TLE details & history
Last TLE update: 2 months ago

TLE from 2 months ago
0 COSMOS 2491 DEB
1 57547U 13076AJ  26190.62130399  .00001093  00000-0  71877-2 0  9991
2 57547  82.4641 144.5643 0018337  15.8415 344.3238 12.49344625144240
Epoch: 2026-07-09T14:54Z
TLE epoch observation values (Epoch: 2026-07-09T14:54:40.664Z)
Latitude
-0.00005°
Longitude
-6.66574°
Altitude
1,456.094 km
Speed
7.141 km/s
True Right ascension
09h 38m 15s
True Declination
0° 00' 00"
Sunlit
Object was in daylight at epoch
Visualization orbit readout
Latitude
Unknown
Longitude
Unknown
Altitude
Unknown
Speed
Unknown
Apparent Right ascension
Unknown
Apparent Declination
Unknown
Sunlit
N/A
Visualization observer readout
Local Sidereal Time
20:40:06
Azimuth
Unknown
Elevation
Unknown
Doppler factor
Unknown
Orbital elements
Apogee altitude
1,478.962 km
Perigee altitude
1,450.2 km
Semi-major axis
7,842.718 km
Eccentricity
0.00183
Inclination
82.4641°
RAAN
144.5643°
Arg. of periapsis
15.8415°
True anomaly
344.2669°
Mean anomaly
344.3238°
Eccentric anomaly
344.29536°
Mean motion
3.12495 °/min
Orbital period
115.2 mins
BSTAR
0.0071877
Loading maneuver chart data...
Computing Atmospheric mass density...
Loading historical data...
Loading historical data...
Loading historical data...
Loading historical data...
Loading historical data...
Loading historical data...
Loading historical data...

Documentation

Showing up to 5 results
|